Regional Weather Roundup
Issued by NWS

Home | Current Version | Previous Version | Graphics & Text | Print | Product List | Glossary On
Versions: 1 2 3 4 5 6 7 8 9 10 11 12 13 14 15 16 17 18 19 20 21 22 23 24 25 26 27 28 29 30 31 32 33 34 35 36 37 38 39 40 41 42 43 44 45 46 47 48 49 50
000
ASUS45 KBOU 040207
RWRCO

WEATHER ROUNDUP FOR COLORADO
NATIONAL WEATHER SERVICE DENVER/BOULDER CO
800 PM MDT TUE MAY 03 2016

NOTE: "FAIR" INDICATES FEW OR NO CLOUDS BELOW 12000 FEET WITH NO
SIGNIFICANT WEATHER AND/OR OBSTRUCTIONS TO VISIBILITY.

COZ001>005-013-030-031-040300-
...NORTHWEST COLORADO...

CITY           SKY/WX    TMP DP  RH WIND       PRES   REMARKS
CRAIG          FAIR      62  29  28 NW3       30.23R
HAYDEN         FAIR      57  30  35 W6        30.24R
MEEKER         FAIR      59  29  31 N10       30.23R
MOUNT WERNER   NOT AVBL
STEAMBOAT SPGS FAIR      58  32  37 SW5       30.25R
WALDEN         FAIR      50  27  40 NW8       30.33R
$$

COZ006>008-011-040300-
...WEST CENTRAL VALLEYS...

CITY           SKY/WX    TMP DP  RH WIND       PRES   REMARKS
GRAND JUNCTION FAIR      69  32  25 CALM      30.12R
MONTROSE       FAIR      65  26  23 N3        30.19R
EAGLE          FAIR      63  19  19 N6        30.23R
RIFLE          FAIR      67  25  20 NW8       30.16R
DELTA          NOT AVBL
NUCLA          NOT AVBL
$$

COZ017>023-064>068-040300-
...SOUTHWEST COLORADO...

CITY           SKY/WX    TMP DP  RH WIND       PRES   REMARKS
DURANGO        FAIR      60  35  39 W7        30.23R
CORTEZ         FAIR      63  29  27 S10       30.19R
PAGOSA SPRINGS FAIR      56  29  34 W5        30.27R
TELLURIDE      FAIR      52  23  32 CALM      30.34R
WOLF CREEK PAS FAIR      36  16  44 NW5       30.51R
$$

COZ009-010-012-014-032>034-037-058>063-040300-
...CENTRAL COLORADO...

CITY           SKY/WX    TMP DP  RH WIND       PRES   REMARKS
ASPEN          FAIR      58  17  20 W7        30.26R
BUENA VISTA    FAIR      49  24  37 SE5       30.30R
COPPER MTN     NOT AVBL
BERTHOUD PASS  FAIR      30  21  69 W3        30.51R
COTTONWOOD PAS FAIR      50   3  14 S6        30.39R
GUNNISON       FAIR      57  19  23 NW7       30.28R
KREMMLING      FAIR      55  16  21 NW7       30.28R
LEADVILLE      FAIR      45  11  25 N6        30.37R
MONARCH PASS   FAIR      34  18  51 MISG      30.59R
SALIDA         FAIR      57  21  24 SE6       30.35R
SUNLIGHT       FAIR      45  21  39 CALM      30.47R
WILKERSON PASS FAIR      34  19  55 SE8       30.49R WCI  27
$$

COZ069>075-040300-
...SAN LUIS VALLEY/SANGRE DE CRISTO MOUNTAINS...

CITY           SKY/WX    TMP DP  RH WIND       PRES   REMARKS
ALAMOSA        FAIR      53  16  23 E7        30.28R
LA VETA PASS   FAIR      34  23  64 NE5       30.42R WCI  30
SAGUACHE       FAIR      52  27  37 SE6       30.29R
$$

COZ035-036-038>040-040300-
...NORTHERN COLORADO FRONT RANGE...

CITY           SKY/WX    TMP DP  RH WIND       PRES   REMARKS
DENVER INTL AP FAIR      57  32  38 N7        30.22R
DMNS CITY PARK   N/A     60  23  24 NE10      30.23R
AURORA         FAIR      57  32  38 N3        30.24R
FRONT RANGE AP PTCLDY    54  36  50 NW6       30.22R
ERIE MUNI ARPT FAIR      58  34  40 CALM      30.21R
BOULDER MUN AP FAIR      61  28  29 CALM      30.21S
CENTENNIAL     FAIR      57  27  31 N6        30.24R
BROOMFIELD     PTCLDY    59  28  31 N5        30.24R
FORT COLLINS   FAIR      61  36  39 E6        30.20R
LONGMONT       FAIR      64  31  29 CALM      30.22R
$$

COZ041-046-047-076>085-087-088-040300-
...PIKES PEAK/PALMER DIVIDE AND SOUTHERN FOOTHILLS...

CITY           SKY/WX    TMP DP  RH WIND       PRES   REMARKS
COLO. SPRINGS  FAIR      54  26  34 NE9       30.26R
A. F. ACADEMY  FAIR      52  23  32 NW1       30.26R
SCHRIEVER AFB  NOT AVBL
ELLICOTT       FAIR     N/A N/A N/A NE6       30.24R
FALCON         FAIR      49  28  44 N5        30.29R
FORT CARSON    FAIR      54  23  30 N8        30.23R
LIMON          FAIR      50  38  63 N7        30.20R
MONUMENT HILL  FAIR      45  30  57 N7        30.31R
TRINIDAD       FAIR      55  28  35 N7        30.23R
$$

COZ042>045-048>051-090-091-040300-
...NORTHEAST COLORADO...

CITY           SKY/WX    TMP DP  RH WIND       PRES   REMARKS
GREELEY ARPT   FAIR      57  39  51 N3        30.18R
AKRON          FAIR      53  35  50 NE6       30.15R
BURLINGTON     FAIR      58  33  39 N5        30.14R
WRAY           NOT AVBL
STERLING       FAIR      61  32  33 NE5       30.12R
HOLYOKE        NOT AVBL
FORT MORGAN    FAIR      55  37  50 NW9       30.17R
$$

COZ086-089-092>099-040300-
...SOUTHEAST COLORADO...

CITY           SKY/WX    TMP DP  RH WIND       PRES   REMARKS
PUEBLO         FAIR      65  29  25 NE5       30.18R
LA JUNTA       FAIR      61  34  36 N7        30.16R
LAMAR          FAIR      59  33  37 NE6       30.11R
SPRINGFIELD      N/A     48  34  58 N9        30.15R
$$



USA.gov is the U.S. government's official web portal to all federal, state and local government web resources and services.